Location: Luna
(33.8188°N, 108.9564°W)
Time: 14:33:06
(UTC+00:00)

XW-2D - Visible Passes

Search period start: 25 March 2023 00:00
Search period end: 04 April 2023 00:00
Orbit: 479 x 498 km, 97.5° (Epoch: 25 March)

Date Brightness Start Highest point End Pass type
(mag) Time Alt. Az. Time Alt. Az. Time Alt. Az.
25 Mar ? 12:36:16 10° ENE 12:38:25 15° E 12:40:33 10° SE visible
29 Mar ? 12:37:16 10° ENE 12:39:29 15° E 12:41:41 10° SE visible
02 Apr ? 12:37:31 10° ENE 12:39:43 16° E 12:41:56 10° SE visible
